FW9312 Weather Reports


Display with metric or nautical units.
time (UTC)temp
F
wind
direction
speed
MPH
gust
MPH
rain 1hr
in
rain 24hr
in
rain mn
in
humidity
%
barometer
mb
20260509200320 72 67 1.0 1.0 0.00 0.00 0.00 52 1009.0
20260509195816 72 261 1.0 2.0 0.00 0.00 0.00 51 1009.2
20260509195316 72 294 0.0 0.0 0.00 0.00 0.00 50 1009.1
20260509194816 72 47 2.0 2.0 0.00 0.00 0.00 53 1009.2
20260509194313 72 252 1.0 1.0 0.00 0.00 0.00 52 1009.1
20260509193809 72 129 2.0 2.0 0.00 0.00 0.00 52 1009.0
20260509193309 71 219 0.0 0.0 0.00 0.00 0.00 53 1009.2
20260509192806 71 161 1.0 1.0 0.00 0.00 0.00 53 1009.4
20260509192305 71 131 1.0 1.0 0.00 0.00 0.00 54 1009.3
20260509191756 70 240 1.0 1.0 0.00 0.00 0.00 53 1009.4
20260509191253 70 109 3.0 3.0 0.00 0.00 0.00 54 1009.1
20260509190749 70 112 0.0 1.0 0.00 0.00 0.00 56 1009.4
20260509190247 71 111 1.0 1.0 0.00 0.00 0.00 53 1009.4
20260509185744 71 241 0.0 0.0 0.00 0.00 0.00 54 1009.7
20260509185240 70 272 0.0 1.0 0.00 0.00 0.00 57 1009.8
20260509184738 69 276 0.0 0.0 0.00 0.00 0.00 54 1009.8
20260509184235 69 184 0.0 1.0 0.00 0.00 0.00 55 1009.7
20260509183731 69 132 1.0 1.0 0.00 0.00 0.00 56 1009.8
20260509183226 68 111 3.0 3.0 0.00 0.00 0.00 55 1009.9
20260509182722 69 56 2.0 3.0 0.00 0.00 0.00 54 1009.8
20260509182220 68 30 1.0 2.0 0.00 0.00 0.00 54 1010.2
20260509181717 68 135 0.0 1.0 0.00 0.00 0.00 56 1010.2
20260509181214 68 67 2.0 3.0 0.00 0.00 0.00 55 1010.2
20260509180711 68 105 0.0 1.0 0.00 0.00 0.00 58 1010.3
20260509180207 68 46 3.0 6.0 0.00 0.00 0.00 56 1010.4
20260509175704 68 235 0.0 1.0 0.00 0.00 0.00 56 1010.4
20260509175201 68 17 1.0 1.0 0.00 0.00 0.00 55 1010.8
20260509174656 68 136 1.0 1.0 0.00 0.00 0.00 55 1010.9
20260509174151 68 36 0.0 1.0 0.00 0.00 0.00 55 1010.9
20260509173647 66 151 0.0 1.0 0.00 0.00 0.00 58 1011.2
20260509173143 67 48 2.0 2.0 0.00 0.00 0.00 58 1011.2
20260509172639 66 100 1.0 1.0 0.00 0.00 0.00 57 1011.2
20260509172136 66 66 1.0 2.0 0.00 0.00 0.00 58 1011.4
20260509171632 66 265 0.0 0.0 0.00 0.00 0.00 58 1011.5
20260509171128 65 267 0.0 0.0 0.00 0.00 0.00 58 1011.6
20260509170625 65 74 1.0 1.0 0.00 0.00 0.00 58 1011.6
20260509170121 65 17 1.0 1.0 0.00 0.00 0.00 57 1011.6
20260509165619 66 152 0.0 0.0 0.00 0.00 0.00 59 1011.4
20260509165115 66 76 1.0 1.0 0.00 0.00 0.00 57 1011.2
20260509164611 66 139 1.0 1.0 0.00 0.00 0.00 57 1011.1
20260509164107 66 60 1.0 1.0 0.00 0.00 0.00 59 1011.1
20260509163605 66 129 2.0 2.0 0.00 0.00 0.00 58 1011.1
20260509163100 65 143 0.0 0.0 0.00 0.00 0.00 60 1011.1
20260509162558 65 79 1.0 2.0 0.00 0.00 0.00 57 1011.3
20260509162054 65 120 1.0 1.0 0.00 0.00 0.00 60 1011.3
20260509161551 66 55 1.0 2.0 0.00 0.00 0.00 56 1011.5
20260509161050 66 140 0.0 0.0 0.00 0.00 0.00 56 1011.3
20260509160547 67 62 1.0 1.0 0.00 0.00 0.00 56 1011.5
20260509160042 66 188 1.0 1.0 0.00 0.00 0.00 55 1011.3
20260509155538 67 76 1.0 1.0 0.00 0.00 0.00 55 1011.4
20260509155035 67 159 0.0 1.0 0.00 0.00 0.00 57 1011.3
20260509154531 66 46 2.0 2.0 0.00 0.00 0.00 55 1011.3
20260509154029 66 304 1.0 2.0 0.00 0.00 0.00 55 1011.6
20260509153526 67 68 0.0 1.0 0.00 0.00 0.00 55 1011.4
20260509153023 66 269 0.0 0.0 0.00 0.00 0.00 56 1011.5
20260509152518 65 43 0.0 1.0 0.00 0.00 0.00 58 1011.5
20260509152015 65 268 0.0 0.0 0.00 0.00 0.00 58 1011.5
20260509151512 64 186 1.0 1.0 0.00 0.00 0.00 58 1011.8
20260509151010 64 179 1.0 1.0 0.00 0.00 0.00 58 1011.8
20260509150507 64 230 1.0 2.0 0.00 0.00 0.00 58 1011.9
20260509150006 63 252 0.0 1.0 0.00 0.00 0.00 59 1011.9
20260509145501 63 226 1.0 1.0 0.00 0.00 0.00 57 1011.9
20260509144955 62 223 1.0 1.0 0.00 0.00 0.00 60 1011.9
20260509144453 62 215 1.0 2.0 0.00 0.00 0.00 59 1012.2
20260509143950 62 187 1.0 1.0 0.00 0.00 0.00 61 1012.1
20260509143447 62 224 1.0 1.0 0.00 0.00 0.00 62 1012.1
20260509142944 62 211 0.0 0.0 0.00 0.00 0.00 61 1011.8
20260509142440 62 186 1.0 1.0 0.00 0.00 0.00 61 1012.0
20260509141935 61 176 1.0 2.0 0.00 0.00 0.00 62 1011.8
20260509141432 61 185 1.0 1.0 0.00 0.00 0.00 61 1011.5
20260509140929 61 183 0.0 0.0 0.00 0.00 0.00 62 1011.4
20260509140425 61 185 0.0 1.0 0.00 0.00 0.00 62 1011.5
20260509135924 61 204 0.0 1.0 0.00 0.00 0.00 63 1011.5
20260509135421 60 231 0.0 0.0 0.00 0.00 0.00 63 1011.3
20260509134918 60 236 0.0 1.0 0.00 0.00 0.00 63 1011.7
20260509134415 60 232 0.0 0.0 0.00 0.00 0.00 63 1011.6
20260509133913 60 220 1.0 1.0 0.00 0.00 0.00 63 1011.7
20260509133409 60 211 1.0 1.0 0.00 0.00 0.00 63 1011.7
20260509132908 60 218 1.0 1.0 0.00 0.00 0.00 63 1011.8
20260509132406 60 214 2.0 3.0 0.00 0.00 0.00 61 1011.7
20260509131903 60 186 1.0 1.0 0.00 0.00 0.00 64 1011.8
20260509131359 60 182 2.0 2.0 0.00 0.00 0.00 63 1011.5
20260509130856 60 193 0.0 0.0 0.00 0.00 0.00 62 1011.2
20260509130351 59 193 1.0 1.0 0.00 0.00 0.00 63 1011.3
20260509125849 59 177 0.0 0.0 0.00 0.00 0.00 66 1011.5
20260509125345 58 177 1.0 1.0 0.00 0.00 0.00 67 1011.5
20260509124841 58 177 0.0 0.0 0.00 0.00 0.00 67 1011.4
20260509124338 58 177 0.0 0.0 0.00 0.00 0.00 67 1011.5
20260509123836 58 199 1.0 2.0 0.00 0.00 0.00 68 1011.6
20260509123333 58 208 1.0 1.0 0.00 0.00 0.00 66 1011.8
20260509122828 58 227 2.0 2.0 0.00 0.00 0.00 65 1011.8
20260509122326 59 183 1.0 1.0 0.00 0.00 0.00 67 1011.7
20260509121823 58 220 1.0 1.0 0.00 0.00 0.00 64 1011.5
20260509121320 58 215 0.0 1.0 0.00 0.00 0.00 65 1011.6
20260509120818 57 200 1.0 1.0 0.00 0.00 0.00 66 1011.6
20260509120315 57 195 1.0 1.0 0.00 0.00 0.00 67 1011.7
20260509115814 57 180 2.0 3.0 0.00 0.00 0.00 67 1011.6
20260509115310 57 174 0.0 1.0 0.00 0.00 0.00 68 1011.6
20260509114808 57 193 1.0 1.0 0.00 0.00 0.00 67 1011.5
20260509114307 57 193 0.0 0.0 0.00 0.00 0.00 68 1011.5
20260509113805 57 222 0.0 1.0 0.00 0.00 0.00 66 1011.2
20260509113302 57 223 1.0 1.0 0.00 0.00 0.00 65 1011.5
20260509112759 57 223 0.0 0.0 0.00 0.00 0.00 65 1011.3
20260509112256 57 221 1.0 1.0 0.00 0.00 0.00 64 1011.4
20260509111753 56 231 2.0 2.0 0.00 0.00 0.00 65 1011.5
20260509111250 56 228 0.0 1.0 0.00 0.00 0.00 66 1011.5
20260509110747 56 228 0.0 1.0 0.00 0.00 0.00 65 1011.4
20260509110243 56 229 1.0 1.0 0.00 0.00 0.00 66 1011.3
20260509105742 56 224 1.0 2.0 0.00 0.00 0.00 67 1011.3
20260509105239 56 221 0.0 0.0 0.00 0.00 0.00 67 1011.2
20260509104736 56 221 0.0 1.0 0.00 0.00 0.00 67 1011.0
20260509104233 56 219 0.0 0.0 0.00 0.00 0.00 66 1011.0
20260509103731 56 219 1.0 1.0 0.00 0.00 0.00 67 1010.8
20260509103228 56 221 0.0 1.0 0.00 0.00 0.00 66 1011.0
20260509102726 55 236 0.0 0.0 0.00 0.00 0.00 67 1011.1
20260509102223 55 236 1.0 1.0 0.00 0.00 0.00 67 1011.2
20260509101719 55 231 1.0 1.0 0.00 0.00 0.00 67 1011.0
20260509101215 55 231 0.0 0.0 0.00 0.00 0.00 67 1011.1
20260509100713 55 233 0.0 0.0 0.00 0.00 0.00 68 1010.9
20260509100210 55 233 0.0 1.0 0.00 0.00 0.00 68 1011.0
20260509095707 54 230 1.0 1.0 0.00 0.00 0.00 69 1011.1
20260509095204 53 229 1.0 1.0 0.00 0.00 0.00 73 1011.1
20260509094701 53 222 0.0 0.0 0.00 0.00 0.00 76 1010.8
20260509094158 53 222 0.0 0.0 0.00 0.00 0.00 75 1010.6
20260509093656 54 222 0.0 0.0 0.00 0.00 0.00 74 1011.0
20260509093153 54 222 0.0 0.0 0.00 0.00 0.00 72 1010.9
20260509092651 54 221 0.0 0.0 0.00 0.00 0.00 73 1011.3
20260509092149 55 221 0.0 0.0 0.00 0.00 0.00 72 1011.2
20260509091647 54 221 0.0 0.0 0.00 0.00 0.00 70 1011.0
20260509091142 55 221 0.0 0.0 0.00 0.00 0.00 73 1011.0
20260509090641 55 221 0.0 0.0 0.00 0.00 0.00 69 1011.2
20260509090137 55 221 0.0 0.0 0.00 0.00 0.00 69 1011.2
20260509085635 54 223 0.0 0.0 0.00 0.00 0.00 70 1011.2
20260509085131 55 223 0.0 0.0 0.00 0.00 0.00 71 1011.1
20260509084628 55 223 0.0 0.0 0.00 0.00 0.00 70 1011.1
20260509084125 55 223 0.0 0.0 0.00 0.00 0.00 69 1011.1
20260509083623 55 223 0.0 0.0 0.00 0.00 0.00 68 1011.2
20260509083119 55 222 1.0 1.0 0.00 0.00 0.00 69 1011.4
20260509082616 55 220 1.0 1.0 0.00 0.00 0.00 69 1011.4
20260509082113 55 220 0.0 1.0 0.00 0.00 0.00 70 1011.3
20260509081610 55 220 0.0 0.0 0.00 0.00 0.00 70 1011.3
20260509081107 54 220 0.0 1.0 0.00 0.00 0.00 71 1011.3
20260509080605 54 220 1.0 1.0 0.00 0.00 0.00 73 1011.1
20260509075601 54 219 0.0 0.0 0.00 0.00 0.00 74 1011.3
20260509075058 54 219 0.0 0.0 0.00 0.00 0.00 73 1011.2
20260509074555 54 219 0.0 0.0 0.00 0.00 0.00 72 1011.3
20260509074051 54 219 0.0 0.0 0.00 0.00 0.00 72 1011.3
20260509073548 54 219 0.0 0.0 0.00 0.00 0.00 71 1011.3
20260509073044 55 219 0.0 0.0 0.00 0.00 0.00 72 1011.1
20260509072541 55 219 0.0 0.0 0.00 0.00 0.00 71 1011.4
20260509072038 55 219 0.0 0.0 0.00 0.00 0.00 71 1011.4
20260509071535 54 219 0.0 1.0 0.00 0.00 0.00 70 1011.3
20260509071033 54 219 0.0 0.0 0.00 0.00 0.00 71 1011.5
20260509070529 53 219 0.0 0.0 0.00 0.00 0.00 73 1011.5
20260509070025 53 219 0.0 0.0 0.00 0.00 0.00 74 1011.4
20260509065521 54 219 0.0 0.0 0.00 0.00 0.00 74 1011.5
20260509065017 53 219 0.0 1.0 0.00 0.00 0.00 73 1011.3
20260509064515 52 220 1.0 1.0 0.00 0.00 0.00 76 1011.6
20260509064013 52 217 0.0 0.0 0.00 0.00 0.00 79 1011.4
20260509063508 52 217 0.0 0.0 0.00 0.00 0.00 79 1011.5
20260509063006 51 217 0.0 0.0 0.00 0.00 0.00 82 1011.6
20260509062503 51 217 0.0 0.0 0.00 0.00 0.00 83 1011.7
20260509062000 51 217 0.0 0.0 0.00 0.00 0.00 84 1011.6
20260509061457 51 217 0.0 0.0 0.00 0.00 0.00 84 1011.8
20260509060954 51 217 0.0 0.0 0.00 0.00 0.00 85 1011.6
20260509060452 51 217 0.0 0.0 0.00 0.00 0.00 86 1011.8
20260509055947 51 217 0.0 0.0 0.00 0.00 0.00 86 1011.8
20260509055442 51 217 0.0 0.0 0.00 0.00 0.00 86 1011.8
20260509054939 51 217 0.0 0.0 0.00 0.00 0.00 87 1011.8
20260509054436 50 217 0.0 0.0 0.00 0.00 0.00 87 1011.7
20260509053934 50 217 0.0 0.0 0.00 0.00 0.00 88 1011.8
20260509053432 49 217 0.0 0.0 0.00 0.00 0.00 88 1011.8
20260509052929 49 217 0.0 0.0 0.00 0.00 0.00 87 1011.6
20260509052426 49 217 0.0 0.0 0.00 0.00 0.00 87 1011.8
20260509051925 50 217 0.0 0.0 0.00 0.00 0.00 87 1011.9
20260509051422 50 217 0.0 0.0 0.00 0.00 0.00 87 1011.8
20260509050919 50 217 0.0 0.0 0.00 0.00 0.00 86 1012.1
20260509050415 50 217 0.0 0.0 0.00 0.00 0.00 85 1012.2
20260509045912 50 217 0.0 0.0 0.00 0.00 0.00 84 1012.2
20260509045409 50 217 0.0 0.0 0.00 0.00 0.00 84 1012.1
20260509044906 50 217 0.0 0.0 0.00 0.00 0.00 84 1012.1
20260509044404 50 217 0.0 0.0 0.00 0.00 0.00 84 1012.0
20260509043901 50 217 0.0 0.0 0.00 0.00 0.00 84 1012.0
20260509043356 50 217 0.0 0.0 0.00 0.00 0.00 83 1012.1
20260509042852 50 217 0.0 0.0 0.00 0.00 0.00 83 1012.0
20260509042349 50 217 0.0 0.0 0.00 0.00 0.00 82 1011.9
20260509041846 50 217 0.0 0.0 0.00 0.00 0.00 82 1012.0
20260509041343 51 217 0.0 0.0 0.00 0.00 0.00 81 1012.2
20260509040841 51 217 0.0 0.0 0.00 0.00 0.00 81 1012.1
20260509040338 51 217 0.0 0.0 0.00 0.00 0.00 81 1012.1
20260509035835 51 217 0.0 0.0 0.00 0.00 0.00 80 1012.2
20260509035332 51 217 0.0 0.0 0.00 0.00 0.00 79 1012.2
20260509034828 52 217 0.0 0.0 0.00 0.00 0.00 79 1012.1
20260509034326 52 217 0.0 0.0 0.00 0.00 0.00 78 1012.2
20260509033823 52 217 0.0 0.0 0.00 0.00 0.00 77 1012.2
20260509033320 52 217 0.0 0.0 0.00 0.00 0.00 77 1012.1
20260509032817 52 217 0.0 0.0 0.00 0.00 0.00 77 1012.1
20260509032314 52 217 0.0 0.0 0.00 0.00 0.00 76 1012.0
20260509031812 53 217 0.0 0.0 0.00 0.00 0.00 75 1012.0
20260509031309 53 217 0.0 0.0 0.00 0.00 0.00 74 1012.1
20260509030807 53 217 0.0 0.0 0.00 0.00 0.00 73 1012.2
20260509030304 53 217 0.0 0.0 0.00 0.00 0.00 74 1012.3
20260509025801 53 217 0.0 0.0 0.00 0.00 0.00 73 1012.4
20260509025256 53 217 0.0 0.0 0.00 0.00 0.00 72 1012.4
20260509024752 54 217 0.0 0.0 0.00 0.00 0.00 71 1012.4
20260509024248 55 217 0.0 0.0 0.00 0.00 0.00 70 1012.6
20260509023745 55 217 0.0 0.0 0.00 0.00 0.00 70 1012.5
20260509023242 55 217 0.0 0.0 0.00 0.00 0.00 68 1012.5
20260509022738 56 217 0.0 0.0 0.00 0.00 0.00 67 1012.4
20260509022237 57 217 0.0 0.0 0.00 0.00 0.00 65 1012.4
20260509021733 57 217 0.0 0.0 0.00 0.00 0.00 65 1012.4
20260509021230 57 217 0.0 0.0 0.00 0.00 0.00 65 1012.5
20260509020728 58 217 0.0 0.0 0.00 0.00 0.00 65 1012.3
20260509020225 58 217 0.0 0.0 0.00 0.00 0.00 61 1012.4
20260509015723 59 217 0.0 0.0 0.00 0.00 0.00 61 1012.4
20260509015222 58 217 0.0 0.0 0.00 0.00 0.00 60 1012.4
20260509014717 58 217 0.0 0.0 0.00 0.00 0.00 61 1012.4
20260509014215 59 217 0.0 0.0 0.00 0.00 0.00 60 1012.3
20260509013711 59 217 0.0 0.0 0.00 0.00 0.00 59 1012.2
20260509013207 59 217 0.0 0.0 0.00 0.00 0.00 58 1012.4
20260509012703 60 217 0.0 0.0 0.00 0.00 0.00 56 1012.3
20260509012200 60 217 0.0 0.0 0.00 0.00 0.00 55 1012.3
20260509011658 60 217 0.0 1.0 0.00 0.00 0.00 56 1012.3
20260509011155 60 219 0.0 0.0 0.00 0.00 0.00 57 1012.2
20260509010653 60 219 0.0 0.0 0.00 0.00 0.00 56 1012.2
20260509010149 61 219 0.0 0.0 0.00 0.00 0.00 56 1012.1
20260509005647 62 219 0.0 0.0 0.00 0.00 0.00 58 1012.1
20260509005143 62 219 0.0 0.0 0.00 0.00 0.00 52 1012.0
20260509004639 61 219 0.0 0.0 0.00 0.00 0.00 52 1012.0
20260509004136 62 219 0.0 0.0 0.00 0.00 0.00 54 1011.9
20260509003634 62 219 0.0 0.0 0.00 0.00 0.00 53 1011.9
20260509003131 62 219 0.0 0.0 0.00 0.00 0.00 52 1012.0
20260509002628 62 219 0.0 0.0 0.00 0.00 0.00 49 1011.9
20260509002125 63 219 0.0 0.0 0.00 0.00 0.00 51 1012.0
20260509001624 63 219 0.0 0.0 0.00 0.00 0.00 51 1011.8
20260509001119 64 219 0.0 0.0 0.00 0.00 0.00 47 1011.9
20260509000618 65 219 0.0 0.0 0.00 0.00 0.00 46 1011.7
20260509000114 65 219 0.0 0.0 0.00 0.00 0.00 44 1011.8
20260508235611 66 219 0.0 0.0 0.00 0.00 0.00 41 1011.7
20260508235108 67 219 0.0 0.0 0.00 0.00 0.00 40 1011.6
20260508234605 67 224 0.0 1.0 0.00 0.00 0.00 39 1011.8
20260508234101 67 227 0.0 0.0 0.00 0.00 0.00 40 1011.8
20260508233601 67 228 0.0 1.0 0.00 0.00 0.00 39 1011.7
20260508233058 67 249 0.0 0.0 0.00 0.00 0.00 40 1011.7
20260508232555 68 247 0.0 0.0 0.00 0.00 0.00 38 1011.4
20260508232052 68 250 0.0 1.0 0.00 0.00 0.00 39 1011.7
20260508231550 68 240 0.0 0.0 0.00 0.00 0.00 38 1011.4
20260508231046 68 240 0.0 1.0 0.00 0.00 0.00 38 1011.3
20260508230543 68 15 0.0 1.0 0.00 0.00 0.00 38 1011.4
20260508230039 68 274 0.0 0.0 0.00 0.00 0.00 38 1011.5
20260508225537 68 279 0.0 0.0 0.00 0.00 0.00 38 1011.3
20260508225033 68 279 0.0 1.0 0.00 0.00 0.00 38 1011.5
20260508224532 68 256 1.0 1.0 0.00 0.00 0.00 37 1011.4
20260508224029 68 260 2.0 2.0 0.00 0.00 0.00 37 1011.4
20260508223526 68 276 2.0 2.0 0.00 0.00 0.00 37 1011.5
20260508223023 69 248 2.0 3.0 0.00 0.00 0.00 36 1011.3
20260508222521 68 284 0.0 1.0 0.00 0.00 0.00 37 1011.3
20260508222017 68 221 1.0 1.0 0.00 0.00 0.00 36 1011.4
20260508221514 69 240 1.0 2.0 0.00 0.00 0.00 36 1011.4
20260508221010 69 231 2.0 2.0 0.00 0.00 0.00 35 1011.2
20260508220506 69 219 1.0 1.0 0.00 0.00 0.00 36 1011.3
20260508220002 69 224 2.0 3.0 0.00 0.00 0.00 35 1011.3
20260508215459 69 203 1.0 1.0 0.00 0.00 0.00 36 1011.3
20260508214956 69 248 2.0 3.0 0.00 0.00 0.00 35 1011.4
20260508214454 70 227 2.0 2.0 0.00 0.00 0.00 34 1011.3
20260508213950 69 243 1.0 2.0 0.00 0.00 0.00 35 1011.4
20260508213447 70 265 3.0 4.0 0.00 0.00 0.00 34 1011.5
20260508212942 70 288 3.0 4.0 0.00 0.00 0.00 33 1011.5
20260508212440 70 238 3.0 4.0 0.00 0.00 0.00 34 1011.4
20260508211935 71 235 3.0 3.0 0.00 0.00 0.00 33 1011.3
20260508211431 71 234 1.0 2.0 0.00 0.00 0.00 34 1011.3
20260508210929 71 237 2.0 3.0 0.00 0.00 0.00 34 1011.4
20260508210425 71 214 4.0 6.0 0.00 0.00 0.00 33 1011.2
20260508205921 71 263 1.0 2.0 0.00 0.00 0.00 32 1011.4
20260508205419 71 216 1.0 2.0 0.00 0.00 0.00 32 1011.3
20260508204915 71 231 2.0 3.0 0.00 0.00 0.00 33 1011.4
20260508204412 71 320 2.0 3.0 0.00 0.00 0.00 32 1011.2
20260508203908 70 275 6.0 7.0 0.00 0.00 0.00 32 1011.3
20260508203404 71 246 4.0 4.0 0.00 0.00 0.00 31 1011.3
20260508202900 72 271 3.0 3.0 0.00 0.00 0.00 32 1011.4
20260508202357 73 300 1.0 2.0 0.00 0.00 0.00 31 1011.4
20260508201855 73 220 3.0 3.0 0.00 0.00 0.00 31 1011.6
20260508201351 73 255 2.0 3.0 0.00 0.00 0.00 31 1011.6
20260508200847 73 277 3.0 4.0 0.00 0.00 0.00 30 1011.5